CAPE
230 420 282 280 338 472 269 200 115 308 446 424 562 777 863 780 759 660 661 657 597 551 586 667 745 604 461 491 535 509 403 182 164 292 307 326 261 57 27 277 461 412 170
250 385 453 433 366 337 211 517 324 531 284 400 468 688 607 505 583 698 598 712 747 809 720 575 487 481 430 527 643 556 498 420 225 107 134 263 202 13 0 134 380 183 60
537 406 397 472 452 417 361 360 626 605 317 227 594 476 485 411 436 653 768 846 721 839 851 723 630 714 617 547 476 531 589 523 316 292 272 88 76 2 3 41 325 390 233
757 593 478 533 671 607 436 409 440 554 564 241 577 728 511 542 598 671 725 787 939 926 890 954 900 813 751 559 523 471 391 465 357 350 299 215 229 104 95 178 99 110 45
826 735 530 552 780 725 704 619 663 667 717 745 808 723 784 859 854 910 962 871 827 876 924 1039 972 823 762 703 632 451 478 331 234 207 267 258 172 203 216 102 144 132 42
852 878 776 532 658 824 825 793 764 927 684 692 574 587 712 874 997 921 889 956 966 894 728 683 757 792 806 681 631 617 592 414 314 218 222 142 133 147 123 146 102 121 136
913 962 1100 906 927 1130 1049 1067 958 941 873 394 215 148 186 685 949 985 823 635 640 630 552 505 452 568 601 613 578 445 404 367 396 309 254 211 216 148 56 99 92 73 31
996 1031 1115 1240 1166 1059 950 788 811 938 919 823 846 927 933 872 958 800 620 409 202 253 405 502 563 521 414 349 373 434 409 320 299 221 274 351 271 269 222 226 155 102 41
1277 1251 1286 1346 1351 1254 1092 1039 781 989 1198 1220 1239 1222 1132 1049 896 676 508 509 537 438 382 394 502 426 324 317 311 202 168 190 234 240 333 296 368 414 399 305 297 193 186
1417 1519 1555 1499 1250 1395 1277 823 1022 1180 1273 1174 1045 679 412 294 336 338 205 251 224 209 441 456 269 237 0 0 67 51 95 128 100 116 213 174 142 205 186 244 413 294 210
1367 1594 1676 1584 1419 1344 1405 1329 1350 1394 1199 690 289 301 204 88 64 57 57 115 60 42 94 95 126 58 0 0 0 0 0 0 0 0 0 25 82 139 216 148 176 259 257
1557 1587 1664 1581 1620 1582 1703 1631 1502 1189 595 301 198 108 26 54 5 3 34 12 132 123 48 122 104 18 0 0 0 0 0 0 0 0 0 0 2 7 37 27 10 21 29
1727 1726 1829 1917 2066 2001 1873 1490 905 468 277 141 66 32 35 50 0 0 0 35 97 248 119 32 0 0 0 0 0 0 0 0 0 0 0 0 0 0 0 0 0 0 0
1751 1718 1904 2077 2051 1746 1366 799 406 322 200 200 238 251 111 0 0 0 0 0 0 0 0 0 0 0 0 0 0 0 0 0 0 3 8 0 0 0 0 0 0 0 0
1912 1918 1807 1817 1793 1427 899 473 496 312 289 372 401 168 0 0 0 0 0 0 0 0 0 0 0 0 0 0 0 0 0 0 0 3 22 11 8 2 0 0 0 0 0
2093 1752 1566 1372 1047 569 485 297 0 63 111 73 23 6 0 0 0 0 0 0 0 0 0 0 0 0 0 0 0 0 0 0 0 13 34 16 7 0 0 0 0 0 0
1545 1447 1153 695 372 488 621 724 756 196 0 0 0 0 0 0 0 0 0 0 0 0 0 0 0 0 0 0 0 5 2 2 4 2 18 0 3 0 0 0 1 1 1
1248 995 409 434 593 662 609 265 410 238 0 0 0 0 0 0 0 0 0 0 0 0 0 0 0 1 1 3 12 15 12 4 3 0 0 0 0 0 0 0 1 1 1
346 333 541 579 397 112 0 0 0 0 0 0 0 0 0 0 0 0 0 0 0 0 0 0 2 3 6 2 0 0 0 0 0 0 0 1 1 1 1 1 1 1 2
494 587 352 166 6 0 0 0 0 0 0 0 0 0 0 0 0 0 0 0 0 0 0 0 0 0 0 0 1 0 0 0 0 0 1 1 1 1 1 1 1 2 2
118 27 4 0 0 0 0 0 0 0 0 0 0 0 0 0 0 0 0 0 0 0 0 0 0 0 0 0 0 0 0 0 1 1 1 1 1 1 1 1 2 1 0
147 21 0 0 0 0 0 0 0 0 0 0 0 0 0 0 0 0 0 0 0 0 0 0 0 0 1 0 0 1 0 0 1 1 1 1 1 1 0 0 0 0 0
80 50 30 0 0 0 0 0 0 0 0 0 0 0 0 0 0 0 0 0 0 0 0 0 0 0 0 0 0 0 0 0 0 0 0 0 0 0 0 0 0 0 0
0 48 72 1 0 0 0 0 0 0 0 0 0 0 0 0 0 0 0 0 1 0 0 0 0 0 0 0 0 0 0 0 0 0 0 0 0 0 0 0 0 0 0
26 92 61 2 0 0 0 0 0 0 0 0 0 0 0 0 0 0 2 0 0 0 0 0 0 0 0 0 0 0 0 0 0 0 0 0 0 0 0 0 0 0 0
99 112 63 34 0 0 0 0 0 0 0 0 0 0 0 0 0 5 17 1 0 0 0 0 0 0 0 0 0 0 0 0 0 0 0 0 0 0 0 0 0 0 0
CIN
-178 -129 -122 -101 -92 -78 -76 -79 -72 -59 -53 -56 -55 -62 -68 -41 -35 -38 -37 -30 -26 -31 -32 -30 -31 -37 -36 -37 -47 -43 -50 -68 -38 -46 -95 -116 -117 -120 -153 -161 -155 -141 -145
-195 -152 -134 -103 -94 -99 -105 -70 -89 -53 -65 -45 -61 -63 -58 -50 -44 -35 -33 -29 -24 -20 -21 -31 -40 -40 -45 -41 -39 -38 -35 -50 -49 -53 -74 -71 -83 -155 -0 -129 -123 -151 -155
-177 -168 -142 -124 -107 -106 -103 -92 -69 -56 -71 -74 -44 -43 -32 -39 -47 -42 -34 -23 -24 -23 -20 -22 -30 -32 -35 -37 -37 -29 -30 -39 -49 -37 -40 -84 -91 -42 -24 -155 -104 -101 -133
-162 -162 -158 -147 -114 -109 -107 -94 -86 -67 -59 -72 -44 -35 -39 -35 -36 -34 -33 -34 -21 -19 -23 -25 -31 -35 -35 -45 -42 -40 -41 -33 -44 -37 -36 -50 -53 -98 -99 -74 -96 -134 -129
-147 -150 -160 -162 -120 -108 -88 -83 -66 -61 -51 -45 -35 -31 -41 -35 -31 -32 -29 -30 -36 -34 -35 -26 -29 -35 -38 -40 -38 -52 -43 -42 -49 -43 -37 -37 -51 -52 -40 -61 -61 -78 -129
-140 -143 -140 -137 -121 -104 -80 -63 -55 -46 -39 -48 -25 -42 -32 -41 -28 -32 -30 -22 -25 -34 -49 -48 -43 -33 -28 -29 -36 -39 -34 -32 -31 -44 -35 -37 -53 -45 -49 -45 -53 -58 -59
-119 -131 -118 -114 -87 -81 -72 -49 -30 -40 -41 -42 -33 -79 -54 -38 -37 -33 -33 -43 -38 -41 -53 -64 -66 -54 -45 -35 -34 -35 -50 -46 -41 -38 -32 -45 -47 -60 -63 -38 -45 -54 -79
-142 -117 -106 -94 -80 -53 -41 -29 -41 -57 -42 -32 -33 -35 -32 -52 -43 -51 -54 -64 -83 -75 -62 -51 -52 -58 -64 -60 -44 -37 -44 -48 -55 -61 -47 -40 -53 -46 -49 -42 -40 -51 -107
-125 -104 -93 -74 -51 -52 -36 -38 -37 -46 -39 -31 -28 -28 -32 -33 -35 -43 -54 -46 -28 -37 -42 -43 -33 -34 -44 -52 -49 -58 -58 -64 -63 -52 -48 -51 -45 -44 -46 -45 -37 -37 -31
-104 -94 -86 -71 -54 -42 -42 -45 -50 -47 -31 -39 -40 -56 -63 -54 -42 -43 -48 -29 -28 -34 -22 -23 -29 -26 -0 -0 -27 -31 -30 -45 -52 -64 -49 -61 -83 -70 -79 -60 -24 -14 -21
-120 -92 -68 -57 -44 -42 -41 -53 -40 -31 -30 -53 -83 -83 -91 -111 -109 -105 -104 -62 -66 -66 -42 -38 -40 -63 -0 -0 -0 -0 -0 -0 -0 -0 -7 -93 -81 -72 -65 -90 -71 -36 -28
-94 -75 -61 -45 -35 -37 -31 -34 -31 -36 -65 -85 -116 -178 -279 -213 -207 -103 -216 -178 -95 -83 -120 -63 -70 -65 -0 -0 -0 -0 -0 -0 -0 -0 -0 -0 -40 -119 -101 -130 -50 -132 -27
-65 -64 -57 -36 -25 -24 -24 -34 -61 -87 -132 -204 -248 -243 -217 -199 -0 -0 -0 -199 -129 -51 -64 -53 -4 -0 -0 -0 -0 -0 -0 -0 -0 -0 -0 -0 -0 -0 -0 -0 -0 -0 -0
-74 -64 -43 -32 -28 -43 -46 -66 -88 -103 -145 -123 -87 -71 -124 -0 -0 -0 -0 -0 -0 -0 -0 -0 -0 -0 -0 -0 -0 -0 -0 -0 -0 -23 -28 -5 -25 -4 -3 -0 -0 -0 -0
-59 -54 -55 -40 -33 -42 -65 -108 -55 -103 -100 -51 -41 -105 -54 -0 -0 -0 -0 -0 -0 -0 -0 -0 -0 -0 -0 -0 -0 -0 -0 -0 -0 -12 -21 -22 -24 -38 -0 -0 -0 -0 -0
-54 -59 -59 -65 -73 -111 -100 -135 -0 -344 -265 -286 -264 -76 -0 -0 -0 -0 -0 -0 -0 -0 -0 -0 -0 -0 -0 -0 -0 -0 -0 -0 -0 -11 -23 -23 -32 -37 -0 -0 -0 -0 -0
-61 -75 -70 -102 -147 -108 -62 -36 -23 -205 -0 -0 -0 -0 -0 -0 -0 -0 -0 -0 -0 -0 -0 -0 -0 -0 -0 -0 -0 -7 -7 -17 -28 -29 -46 -1 -63 -0 -0 -0 -0 -0 -0
-88 -92 -126 -124 -79 -67 -63 -127 -84 -68 -0 -0 -0 -0 -0 -0 -0 -0 -0 -0 -0 -0 -0 -0 -0 -30 -22 -17 -14 -14 -18 -32 -41 -0 -0 -0 -0 -0 -0 -0 -0 -0 -0
-152 -165 -131 -124 -141 -159 -0 -0 -0 -0 -0 -0 -0 -0 -0 -0 -0 -0 -0 -0 -0 -0 -0 -0 -5 -14 -17 -20 -16 -0 -0 -0 -0 -0 -0 -0 -0 -0 -0 -0 -0 -0 -0
-106 -109 -175 -218 -226 -0 -0 -0 -0 -0 -0 -0 -0 -0 -0 -0 -0 -0 -0 -0 -0 -0 -0 -0 -0 -0 -0 -0 -0 -0 -0 -0 -0 -0 -0 -0 -0 -0 -0 -0 -0 -0 -0
-187 -180 -93 -0 -0 -0 -0 -0 -0 -0 -0 -0 -0 -0 -0 -0 -0 -0 -0 -0 -0 -0 -0 -0 -0 -0 -0 -0 -0 -0 -0 -0 -0 -0 -0 -0 -0 -0 -0 -0 -0 -0 -0
-184 -162 -0 -0 -0 -0 -0 -0 -0 -0 -0 -0 -0 -0 -0 -0 -0 -0 -0 -0 -0 -0 -0 -0 -0 -0 -0 -0 -0 -0 -0 -0 -0 -0 -0 -0 -0 -0 -0 -0 -0 -0 -0
-202 -217 -158 -0 -0 -0 -0 -0 -0 -0 -0 -0 -0 -0 -0 -0 -0 -0 -0 -0 -0 -0 -0 -0 -0 -0 -0 -0 -0 -0 -0 -0 -0 -0 -0 -0 -0 -0 -0 -0 -0 -0 -0
-16 -233 -199 -28 -0 -0 -0 -0 -0 -0 -0 -0 -0 -0 -0 -0 -0 -0 -10 -0 -28 -0 -0 -0 -0 -0 -0 -0 -0 -0 -0 -0 -0 -0 -0 -0 -0 -0 -0 -0 -0 -0 -0
-237 -220 -210 -24 -0 -0 -0 -0 -0 -0 -0 -0 -0 -0 -0 -0 -0 -0 -79 -0 -0 -0 -0 -0 -0 -0 -0 -0 -0 -0 -0 -0 -0 -0 -0 -0 -0 -0 -0 -0 -0 -0 -0
-180 -173 -185 -197 -0 -0 -0 -0 -0 -0 -0 -0 -0 -0 -0 -0 -0 -42 -57 -22 -0 -0 -0 -0 -0 -0 -0 -0 -0 -0 -0 -0 -0 -0 -0 -0 -0 -0 -0 -0 -0 -0 -0
Wind_Speed
14 18 19 26 25 25 27 30 12 20 23 21 20 18 3 4 15 20 23 21 24 25 25 23 24 20 23 19 17 26 26 13 5 18 10 14 10 4 15 10 3 2 1
10 15 14 18 23 24 24 20 11 15 18 24 18 15 7 13 20 24 25 24 23 26 26 25 29 28 25 18 15 19 23 23 23 20 20 16 10 12 14 11 7 6 6
6 8 13 14 17 23 23 21 18 14 31 20 6 13 16 27 29 27 24 24 24 22 26 26 27 27 29 28 24 21 20 20 20 23 25 22 18 16 16 14 8 7 9
8 7 13 16 14 23 22 24 17 15 16 8 21 22 10 29 30 29 28 29 28 29 28 27 26 23 23 26 27 25 24 22 19 20 23 25 22 19 17 16 12 12 11
11 12 13 10 9 8 25 19 31 25 16 7 15 27 24 8 2 12 21 23 27 29 29 29 30 29 25 23 23 24 23 25 23 20 21 23 23 20 18 18 13 14 14
14 11 10 13 10 8 7 5 12 32 31 28 29 31 31 7 3 10 6 21 27 31 32 31 30 32 32 30 27 27 25 24 26 23 24 23 24 23 20 19 18 19 19
12 10 10 13 15 8 7 11 20 30 24 17 6 4 26 21 28 25 22 23 24 28 32 34 34 31 31 31 32 30 26 24 23 26 28 27 28 24 24 24 21 18 18
13 16 11 9 13 6 12 15 25 13 21 17 7 4 7 12 19 14 12 16 18 24 34 34 33 33 32 33 33 33 30 27 26 25 23 27 25 25 22 24 24 23 24
12 11 12 12 15 7 9 10 10 13 19 16 17 16 18 19 16 19 20 18 14 19 33 32 30 32 32 32 31 31 31 31 33 30 27 28 27 27 26 25 26 27 28
18 19 15 16 16 22 26 1 13 9 9 14 20 22 23 26 25 23 17 16 20 25 27 26 24 25 26 27 27 28 30 31 33 33 31 30 29 29 27 24 25 26 27
11 9 12 14 13 10 4 9 10 13 17 17 16 20 21 21 22 19 13 11 10 16 22 24 24 24 26 27 26 26 27 28 30 30 29 31 30 28 27 25 23 22 23
4 3 8 9 3 1 2 7 10 10 12 15 17 19 19 20 21 22 18 13 17 15 17 20 21 23 25 26 26 27 28 28 28 28 28 27 27 27 23 23 23 23 23
5 4 2 3 2 1 3 6 8 9 11 12 14 15 17 19 19 22 22 20 19 20 20 20 22 23 25 27 29 30 28 26 27 27 28 27 23 22 21 21 21 20 21
3 2 2 2 3 5 7 8 7 10 12 13 16 18 16 17 19 21 22 21 22 22 23 25 26 27 28 28 29 28 27 25 24 23 24 24 21 20 21 21 23 23 23
2 2 3 3 3 5 9 10 11 13 14 16 18 14 12 14 16 17 18 20 22 24 26 26 29 30 32 33 31 28 26 25 22 20 19 20 20 22 23 23 23 21 21
3 3 2 3 6 8 9 11 15 15 16 13 11 9 8 14 14 13 17 21 23 26 25 24 26 25 26 26 25 25 23 18 16 17 18 20 22 23 24 24 21 18 18
4 4 5 6 6 7 11 14 15 16 18 17 15 12 11 13 10 12 16 20 24 26 26 25 25 25 25 24 21 20 17 15 16 17 20 21 24 25 23 21 18 17 16
4 4 6 8 12 14 17 17 13 13 16 15 17 15 13 10 11 14 17 19 23 23 22 21 23 25 23 22 23 23 21 19 18 19 20 21 21 20 19 18 16 14 12
10 7 7 11 13 11 10 11 12 13 15 17 17 18 16 14 15 15 17 19 20 20 21 20 22 23 21 22 23 23 21 21 20 20 19 18 18 17 16 14 13 12 10
18 13 7 9 11 10 11 12 16 19 19 20 21 19 16 15 16 18 20 23 21 18 19 20 21 21 21 22 22 20 19 19 18 17 17 16 15 14 13 12 10 9 9
22 18 10 10 13 12 13 16 17 18 20 22 24 19 14 15 18 22 25 25 21 19 19 18 17 16 17 17 16 16 16 16 15 16 15 15 13 12 10 9 7 7 6
22 24 17 15 13 14 14 16 17 19 21 22 23 22 16 15 16 19 23 22 18 18 18 18 18 16 16 16 15 14 13 13 13 13 12 12 10 9 8 7 6 6 8
25 27 23 20 17 13 13 15 18 19 21 22 23 23 20 18 18 17 17 15 15 17 18 18 18 18 17 16 16 15 13 12 12 11 11 11 10 10 9 9 9 9 8
30 29 29 20 18 15 12 15 17 18 21 22 24 25 21 20 19 18 16 16 15 14 16 16 16 16 16 15 16 16 15 15 14 14 14 14 15 14 14 14 12 10 8
32 26 19 17 14 8 12 15 17 19 20 22 25 24 20 18 17 17 15 14 13 13 13 14 16 16 15 15 15 15 16 17 16 16 16 16 15 15 14 13 12 12 11
22 18 16 16 12 12 15 17 19 20 20 20 22 22 18 17 13 12 12 11 11 11 11 11 11 12 12 12 13 13 14 14 14 13 12 11 10 9 8 9 9 11 9
Wind_Direction
160 164 164 173 173 177 184 210 271 263 261 270 277 287 208 251 285 281 277 283 277 273 274 281 282 297 288 303 306 273 279 328 352 323 349 335 343 357 326 342 355 241 245
161 162 166 166 174 178 177 170 151 168 252 267 284 290 292 283 281 278 276 278 283 277 277 284 274 275 289 306 313 306 297 299 302 312 316 323 339 331 332 338 340 327 321
192 164 165 169 169 177 178 176 173 170 216 191 287 289 287 270 267 273 285 284 285 289 286 288 286 286 281 284 296 306 307 310 310 304 303 311 317 317 324 332 333 322 325
178 172 166 170 171 179 179 184 177 177 179 172 190 195 182 249 263 270 275 275 278 281 282 286 290 295 298 295 292 295 299 304 309 310 307 307 311 311 315 322 324 318 316
175 169 168 171 178 182 188 187 217 198 182 188 189 209 204 178 216 300 294 291 284 282 284 282 281 285 294 299 299 297 300 298 303 307 306 305 308 307 309 315 314 317 314
173 179 170 165 172 182 177 273 288 253 264 275 273 266 228 195 235 196 299 298 288 281 279 283 286 282 283 288 293 294 297 299 298 300 301 302 304 305 308 308 310 310 310
182 181 174 171 176 195 252 278 279 260 282 299 296 170 220 298 286 296 305 302 298 293 286 282 282 289 290 292 291 294 297 297 295 295 295 297 298 300 303 303 304 305 305
169 174 177 177 178 204 279 282 273 306 293 309 344 347 337 330 311 319 319 315 313 303 285 283 285 287 290 292 292 293 296 296 295 295 295 296 298 301 302 303 303 304 305
179 180 180 179 179 274 280 287 291 305 297 312 312 318 316 320 327 318 315 316 319 315 279 280 289 290 296 297 300 299 299 297 292 292 294 295 295 296 297 299 299 301 301
169 172 168 169 168 180 248 144 309 331 334 319 309 309 306 298 303 311 325 324 316 306 298 299 303 305 307 307 306 305 303 300 297 295 296 296 296 294 293 293 297 297 299
156 157 159 161 160 155 330 317 315 309 306 315 319 313 312 315 317 326 338 338 333 323 312 307 308 309 309 309 308 306 306 307 303 303 303 301 299 298 295 294 293 294 299
159 171 154 155 154 316 333 316 316 324 326 318 315 316 322 324 325 326 332 329 325 325 321 318 316 315 314 313 313 309 306 305 306 307 306 308 305 302 304 306 305 304 305
253 254 225 260 278 307 326 327 329 331 330 329 328 327 329 330 330 330 333 333 327 322 321 320 319 318 316 314 312 311 311 309 306 304 305 307 310 308 309 311 314 316 316
201 199 240 262 292 306 315 320 324 323 323 324 325 324 330 330 330 331 333 333 330 324 319 316 316 315 314 314 314 313 312 310 308 307 307 309 312 312 311 312 310 310 310
233 252 269 283 301 313 312 311 316 318 324 322 322 332 338 337 335 337 338 337 334 329 322 319 315 313 311 311 312 313 311 308 306 306 308 311 311 310 310 312 311 311 310
249 264 266 294 301 306 310 311 314 319 325 337 343 346 349 344 347 351 344 338 334 330 327 325 323 324 323 323 321 318 316 313 311 309 310 310 311 312 312 313 313 313 313
259 271 287 297 303 308 306 307 316 319 323 334 340 348 350 346 353 353 348 341 336 334 328 324 324 326 328 329 331 332 330 324 319 316 314 311 311 312 312 314 315 317 319
269 276 286 287 287 291 289 299 331 337 336 349 342 345 353 1 360 349 346 346 340 341 338 333 328 326 328 330 329 327 327 325 322 319 316 315 315 315 315 315 317 320 324
262 269 279 280 282 299 318 328 334 342 347 344 346 346 350 350 348 347 345 342 342 342 341 336 333 332 331 329 328 328 328 326 323 321 320 320 318 318 318 319 321 324 330
259 261 271 279 287 308 316 323 318 318 331 338 339 347 353 350 344 342 340 338 339 342 342 339 337 335 333 331 331 331 332 333 332 330 329 327 324 323 322 323 326 330 337
254 256 262 275 282 298 305 309 319 326 333 334 333 350 359 353 347 342 339 338 339 342 345 346 348 350 348 347 346 344 342 342 342 338 335 334 334 332 337 342 346 355 11
257 251 259 265 282 296 305 310 321 331 335 336 339 349 358 356 355 350 344 347 353 353 352 350 353 357 357 357 355 356 357 355 355 356 355 356 360 6 5 9 17 50 72
251 252 256 262 273 295 310 315 320 327 333 337 342 345 349 349 351 356 360 4 4 0 360 359 355 356 1 2 2 5 12 13 13 20 27 31 33 37 43 58 67 73 70
243 250 251 260 269 286 306 317 321 325 331 335 336 339 346 346 346 351 354 355 1 6 4 4 10 13 19 18 19 23 31 44 54 53 57 61 61 66 72 74 65 52 56
237 246 249 258 269 279 300 311 319 325 330 332 332 339 343 345 344 345 350 355 1 5 7 6 3 9 21 30 38 41 50 66 65 63 62 64 67 69 67 57 50 36 41
235 243 253 262 265 282 296 306 314 321 329 337 338 340 340 340 342 347 355 4 8 11 15 17 24 25 29 39 41 52 64 74 71 66 59 59 59 56 49 37 30 16 21